[[{"header":{"parameterUnit":"m.s-1","parameterCategory":1,"la1":30.2991,"la2":30.254,"lo1":-89.0895,"lo2":-89.0444,"dy":0.0017,"dx":0.0017,"nx":28,"ny":28,"refTime":"2025-03-27T09:00:00:Z","depth":0,"parameterNumber":2,"parameterNumberName":"U-component_of_WINDS"},"data":[0,0,0,0,0,0,0,0,0,0,0,0,0,0,0,0,0,0,0,0,0,0,0,0,0,0,0,0,0,0,0,0,0,0,0,0,0,0,0,0,0,0,0,0,0,0,0,0,0,0,0,0,0,0,0,0,0,0,-5.1102,-5.1103,0,-5.1164,-5.1165,-5.1166,-5.1124,-5.1123,-5.1121,-5.1119,-5.1179,-5.1182,-5.1185,0,0,0,0,0,0,0,0,0,0,0,0,0,-5.0945,-5.0948,-5.1102,-5.1103,-5.1104,-5.1164,-5.1165,-5.1166,-5.1125,-5.1122,-5.112,-5.1118,-5.1177,-5.1181,-5.1185,0,0,0,0,0,0,0,0,0,0,0,0,0,-5.1011,-5.0949,-5.1102,-5.1091,-5.109,-5.1164,-5.1165,-5.1166,-5.1125,-5.1122,-5.112,-5.1117,-5.1176,-5.1181,-5.1186,-5.1273,0,0,-5.1201,-5.1203,0,0,0,0,0,0,0,0,-5.1007,-5.1017,-5.1092,-5.1092,-5.1091,-5.1134,-5.1131,-5.1202,-5.1126,-5.1112,-5.1119,-5.1116,-5.1166,-5.1171,-5.1189,-5.1276,-5.1278,-5.1202,-5.1205,-5.1207,-5.1208,0,0,0,0,0,0,0,-5.1003,-5.1014,-5.1126,-5.1093,-5.1093,-5.1081,-5.1088,-5.1145,-5.1154,-5.1113,-5.111,-5.1118,-5.1165,-5.1184,-5.119,-5.1279,-5.1202,-5.1206,-5.1209,-5.1211,-5.144,-5.1442,0,0,0,0,0,0,-5.1,-5.101,-5.1125,-5.1128,-5.1042,-5.1087,-5.1093,-5.1123,-5.1153,-5.1155,-5.112,-5.1116,-5.1177,-5.1184,-5.1192,-5.1294,-5.1207,-5.1211,-5.1214,-5.1436,-5.144,-5.1444,0,0,0,0,0,0,-5.0996,-5.101,-5.1122,-5.1069,-5.1082,-5.1092,-5.1126,-5.1126,-5.1145,-5.1159,-5.116,-5.1139,-5.1175,-5.1185,-5.1253,-5.1296,-5.1214,-5.1218,-5.1433,-5.1438,-5.1442,-5.1501,0,0,0,0,0,0,-5.0992,-5.1009,-5.1043,-5.107,-5.1085,-5.1183,-5.1128,-5.1129,-5.1154,-5.1149,-5.1176,-5.1178,-5.1174,-5.1246,-5.1258,-5.1301,-5.1222,-5.1429,-5.1435,-5.144,-5.1495,-5.1507,-5.1517,0,0,0,0,0,-5.0987,-5.1056,-5.1045,-5.1059,-5.1128,-5.1186,-5.1194,-5.1189,-5.1158,-5.1191,-5.12,-5.1177,-5.129,-5.1253,-5.1267,-5.1312,-5.1426,-5.1433,-5.144,-5.149,-5.1504,-5.1517,0,0,0,0,0,0,-5.1033,-5.106,-5.1047,-5.1128,-5.1155,-5.1179,-5.122,-5.1205,-5.124,-5.1234,-5.1225,-5.1232,-5.1303,-5.1315,-5.1273,-5.1397,-5.1353,-5.1363,-5.1386,-5.14,-5.1411,-5.1405,-5.1226,0,0,0,0,0,-5.1053,-5.1099,-5.112,-5.1189,-5.1203,-5.121,-5.1235,-5.1229,-5.1256,-5.1267,-5.1281,-5.1307,-5.1348,-5.1375,-5.1414,-5.1498,-5.1502,-5.1536,-5.1547,-5.1555,-5.1563,-5.1606,-5.1621,-5.1466,-5.1466,-5.1466,0,0,-5.1093,-5.1114,-5.1143,-5.1199,-5.1219,-5.1265,-5.1219,-5.1271,-5.1304,-5.1274,-5.1339,-5.1351,-5.1379,-5.1455,-5.1489,-5.1467,-5.1607,-5.1564,-5.1571,-5.1574,-5.1615,-5.1629,-5.1642,-5.1471,-5.147,-5.1469,0,0,-5.1191,-5.1212,-5.1271,-5.1293,-5.1325,-5.1329,-5.1344,-5.1371,-5.1377,-5.1443,-5.1421,-5.1461,-5.1533,-5.1554,-5.1574,-5.1682,-5.1661,-5.1695,-5.1751,-5.1793,-5.1805,-5.1816,-5.1852,-5.1865,-5.1703,-5.1703,-5.1703,0,-5.1236,-5.1307,-5.1303,-5.1357,-5.1381,-5.1358,-5.1417,-5.1438,-5.1481,-5.1497,-5.1473,-5.1563,-5.1581,-5.166,-5.1687,-5.1705,-5.1719,-5.169,-5.1804,-5.1815,-5.1825,-5.1859,-5.1872,-5.1707,-5.1707,-5.1706,-5.1706,0,-5.1361,-5.141,-5.1454,-5.1497,-5.1527,-5.1583,-5.1587,-5.1617,-5.161,-5.1616,-5.1683,-5.1704,-5.1746,-5.1766,-5.1758,-5.1844,-5.183,-5.1805,-5.176,-5.1843,-5.1875,-5.1888,-5.1712,-5.1711,-5.171,-5.1709,0,0,-5.1485,-5.1527,-5.1543,-5.1562,-5.1597,-5.1634,-5.1689,-5.1732,-5.1757,-5.1788,-5.1832,-5.1895,-5.1873,-5.1896,-5.1891,-5.1929,-5.201,-5.1899,-5.19,-5.1916,-5.2104,-5.2119,-5.2134,-5.1998,-5.2001,-5.2003,-5.21,0,-5.1582,-5.1678,-5.1678,-5.1766,-5.1811,-5.1791,-5.1839,-5.1865,-5.1873,-5.1911,-5.192,-5.1963,-5.1932,-5.1946,-5.1983,-5.1992,-5.2047,-5.1986,-5.2037,-5.2039,-5.2027,-5.2152,-5.2168,-5.2259,-5.2113,-5.2115,-5.2117,0,-5.1707,-5.1743,-5.1837,-5.1865,-5.1883,-5.1926,-5.1965,-5.2003,-5.2032,-5.2035,-5.2062,-5.2052,-5.2107,-5.2063,-5.2137,-5.2096,-5.2117,-5.2125,-5.2129,-5.213,-5.208,-5.2153,-5.2288,-5.23,-5.2137,-5.2135,-5.2134,0,-5.1785,-5.1857,-5.1922,-5.194,-5.1975,-5.2005,-5.2021,-5.2048,-5.2073,-5.2108,-5.2124,-5.2165,-5.2186,-5.2217,-5.2217,-5.2186,-5.2291,-5.2248,-5.2293,-5.2293,-5.2313,-5.2311,-5.245,-5.2333,-5.2333,-5.2333,-5.2333,0,-5.1891,-5.1948,-5.1958,-5.1997,-5.206,-5.206,-5.2122,-5.2135,-5.2159,-5.22,-5.2186,-5.2225,-5.2225,-5.2264,-5.2265,-5.2325,-5.2335,-5.2338,-5.2337,-5.2337,-5.2336,-5.2348,-5.234,-5.2336,-5.2336,-5.2335,-5.2334,0,-5.1987,-5.1996,-5.2065,-5.2094,-5.2102,-5.2147,-5.2171,-5.2208,-5.2217,-5.2268,-5.2281,-5.2293,-5.2338,-5.2343,-5.2395,-5.2396,-5.2468,-5.2462,-5.2458,-5.2455,-5.25,-5.2494,-5.2648,-5.2667,-5.2541,-5.2542,-5.2543,0,-5.2052,-5.2095,-5.213,-5.2157,-5.2174,-5.2218,-5.2245,-5.2247,-5.2275,-5.2312,-5.2344,-5.2389,-5.2424,-5.2497,-5.251,-5.255,-5.2542,-5.2594,-5.2548,-5.2546,-5.2539,-5.2535,-5.2538,-5.2601,-5.2602,-5.2603,-5.2604,0,-5.2166,-5.2169,-5.2208,-5.225,-5.2283,-5.2315,-5.2346,-5.2369,-5.2374,-5.2407,-5.2453,-5.2481,-5.2535,-5.2578,-5.2618,-5.2633,-5.2619,-5.2619,-5.2631,-5.263,-5.2625,-5.2625,-5.2478,-5.2615,-5.2614,-5.2613,-5.2612,-5.2612,-5.2246,-5.2283,-5.2313,-5.2358,-5.2382,-5.2411,-5.2447,-5.2461,-5.25,-5.2545,-5.2544,-5.2595,-5.2623,-5.2675,-5.2694,-5.2733,-5.2715,-5.2734,-5.2738,-5.2741,-5.2744,-5.2622,-5.2741,-5.274,-5.274,-5.274,-5.274,0,-5.2356,-5.2375,-5.2417,-5.2461,-5.2496,-5.2483,-5.2516,-5.2546,-5.2591,-5.262,-5.2655,-5.2708,-5.2751,-5.2768,-5.281,-5.2837,-5.2832,-5.2848,-5.2844,-5.2847,-5.2759,-5.2743,-5.2852,-5.2852,-5.2852,-5.2852,-5.2852,-5.2851,-5.2418,-5.248,-5.2487,-5.256,-5.2579,-5.2629,-5.2649,-5.2676,-5.2698,-5.2759,-5.2795,-5.2807,-5.283,-5.2874,-5.2911,-5.2916,-5.293,-5.2948,-5.2949,-5.2865,-5.2854,-5.2843,-5.2827,-5.2952,-5.2952,-5.3033,-5.3034,-5.3035]},{"header":{"parameterUnit":"m.s-1","parameterCategory":1,"la1":30.2991,"la2":30.254,"lo1":-89.0895,"lo2":-89.0444,"dy":0.0017,"dx":0.0017,"nx":28,"ny":28,"refTime":"2025-03-27T09:00:00:Z","depth":0,"parameterNumber":3,"parameterNumberName":"V-component_of_WINDS"},"data":[0,0,0,0,0,0,0,0,0,0,0,0,0,0,0,0,0,0,0,0,0,0,0,0,0,0,0,0,0,0,0,0,0,0,0,0,0,0,0,0,0,0,0,0,0,0,0,0,0,0,0,0,0,0,0,0,0,0,4.265,4.2651,0,4.2779,4.2781,4.2782,4.2794,4.2792,4.2791,4.279,4.2919,4.2924,4.2928,0,0,0,0,0,0,0,0,0,0,0,0,0,4.2411,4.2416,4.2649,4.2651,4.2653,4.2779,4.2781,4.2782,4.2794,4.2792,4.2791,4.2789,4.2917,4.2923,4.2929,0,0,0,0,0,0,0,0,0,0,0,0,0,4.2525,4.2417,4.2649,4.2674,4.2677,4.2779,4.2781,4.2783,4.2794,4.2792,4.279,4.2788,4.2916,4.2922,4.2929,4.3014,0,0,4.2951,4.2954,0,0,0,0,0,0,0,0,4.2519,4.2534,4.2669,4.2672,4.2676,4.2768,4.2744,4.286,4.2795,4.275,4.279,4.2787,4.287,4.2881,4.291,4.302,4.3026,4.2952,4.2956,4.2959,4.2961,0,0,0,0,0,0,0,4.2511,4.2528,4.2701,4.267,4.2675,4.2678,4.2692,4.2766,4.282,4.2754,4.2755,4.277,4.2872,4.2903,4.2913,4.3027,4.2951,4.2958,4.2962,4.2965,4.3217,4.3219,0,0,0,0,0,0,4.2498,4.2522,4.2696,4.2704,4.2591,4.2684,4.27,4.2741,4.2819,4.2829,4.2772,4.277,4.2892,4.2904,4.2917,4.3023,4.2959,4.2966,4.297,4.3214,4.3217,4.322,0,0,0,0,0,0,4.2493,4.2514,4.2691,4.2614,4.2636,4.269,4.2736,4.2744,4.2775,4.2833,4.2842,4.2793,4.2891,4.2907,4.2991,4.3028,4.2969,4.2975,4.3211,4.3215,4.3219,4.3235,0,0,0,0,0,0,4.2486,4.2512,4.2545,4.2614,4.264,4.2763,4.2739,4.2748,4.2788,4.2787,4.2856,4.2865,4.289,4.298,4.2998,4.3037,4.2981,4.3208,4.3213,4.3217,4.3231,4.3238,4.3245,0,0,0,0,0,4.2478,4.2543,4.2546,4.2567,4.2683,4.2765,4.278,4.2809,4.2791,4.2824,4.2862,4.2863,4.3021,4.2989,4.3009,4.305,4.3206,4.3212,4.3217,4.3228,4.3237,4.3244,0,0,0,0,0,0,4.2474,4.2552,4.2557,4.2646,4.2699,4.2767,4.2809,4.2817,4.2875,4.2871,4.2904,4.2919,4.3002,4.3034,4.2997,4.3137,4.3112,4.3121,4.3113,4.3122,4.3129,4.3119,4.2987,0,0,0,0,0,4.2484,4.2545,4.2609,4.2682,4.2709,4.2755,4.2792,4.281,4.2865,4.2887,4.2931,4.2984,4.3046,4.3086,4.3146,4.3236,4.3252,4.3274,4.3281,4.3287,4.3295,4.3347,4.3358,4.3238,4.3238,4.3238,0,0,4.2504,4.2554,4.259,4.2683,4.2726,4.2788,4.2773,4.2839,4.2886,4.2897,4.2979,4.3013,4.3075,4.3163,4.3203,4.3192,4.3332,4.3294,4.3297,4.3303,4.3354,4.3365,4.3375,4.3242,4.3241,4.324,0,0,4.2573,4.2617,4.2684,4.2728,4.2794,4.2825,4.2841,4.2909,4.2932,4.3016,4.3026,4.3082,4.3187,4.3232,4.3268,4.3358,4.3362,4.3376,4.3412,4.3463,4.3472,4.3481,4.3514,4.3525,4.3384,4.3384,4.3384,0,4.259,4.2685,4.2716,4.2784,4.2825,4.2839,4.2907,4.2948,4.303,4.3058,4.3045,4.318,4.3222,4.3322,4.3344,4.3372,4.3392,4.3368,4.3468,4.3477,4.3486,4.3518,4.353,4.3386,4.3386,4.3385,4.3385,0,4.2703,4.2769,4.2815,4.2896,4.2942,4.3009,4.3051,4.3094,4.3109,4.3141,4.3227,4.3279,4.3351,4.3376,4.3389,4.3478,4.3469,4.3462,4.3437,4.3498,4.3529,4.3541,4.3388,4.3387,4.3387,4.3386,0,0,4.2771,4.2872,4.2888,4.2926,4.3002,4.3053,4.3122,4.3194,4.3231,4.3288,4.3346,4.3437,4.3432,4.3473,4.3492,4.3537,4.3607,4.3524,4.3526,4.3539,4.3709,4.3715,4.3728,4.361,4.3613,4.3615,4.3705,0,4.285,4.2973,4.3005,4.311,4.3172,4.3189,4.3249,4.3302,4.3334,4.3392,4.3428,4.3492,4.3479,4.3505,4.355,4.3589,4.3642,4.3583,4.3665,4.3668,4.3649,4.3744,4.375,4.3832,4.3717,4.3719,4.372,0,4.2957,4.3019,4.3131,4.3201,4.3229,4.3282,4.3352,4.3407,4.3468,4.3489,4.3537,4.3553,4.3625,4.3597,4.3698,4.3657,4.3693,4.3718,4.3722,4.373,4.3697,4.3756,4.3859,4.3871,4.3739,4.3738,4.3736,0,4.2998,4.3108,4.319,4.3222,4.3306,4.3343,4.338,4.3439,4.3481,4.3543,4.3571,4.3639,4.3676,4.3729,4.3763,4.3739,4.3862,4.3836,4.3881,4.388,4.3906,4.3904,4.4016,4.3928,4.3928,4.3928,4.3927,0,4.3082,4.315,4.321,4.326,4.3337,4.3374,4.3449,4.3486,4.3539,4.3597,4.3615,4.3669,4.3711,4.3771,4.3798,4.3878,4.3894,4.3914,4.392,4.3912,4.391,4.3936,4.3931,4.3931,4.393,4.393,4.3929,0,4.314,4.3182,4.3273,4.3346,4.3366,4.342,4.3482,4.3532,4.3566,4.364,4.3659,4.3713,4.3784,4.3824,4.3913,4.3932,4.4022,4.4025,4.4002,4.4005,4.4048,4.4044,4.4182,4.4202,4.41,4.4101,4.4102,0,4.3191,4.3244,4.3324,4.3365,4.3403,4.3468,4.3512,4.355,4.3596,4.3671,4.3712,4.3785,4.3846,4.396,4.4006,4.4075,4.4081,4.4124,4.4091,4.4082,4.4083,4.4079,4.4085,4.413,4.4131,4.4132,4.4132,0,4.3278,4.3297,4.336,4.3433,4.3485,4.3543,4.36,4.3633,4.3681,4.3731,4.3806,4.3853,4.3946,4.4019,4.4092,4.4129,4.4139,4.4143,4.4157,4.415,4.4134,4.4145,4.4018,4.4139,4.4138,4.4138,4.4137,4.4137,4.3335,4.3384,4.3448,4.3519,4.3567,4.3621,4.3672,4.3714,4.3777,4.3857,4.3876,4.3955,4.4017,4.4117,4.4157,4.4219,4.4211,4.4231,4.4236,4.4241,4.4243,4.4125,4.4232,4.4232,4.4232,4.4232,4.4232,0,4.3423,4.3467,4.3532,4.3613,4.3669,4.3675,4.374,4.3786,4.3856,4.3914,4.3974,4.4061,4.4132,4.4186,4.4259,4.4299,4.4305,4.4317,4.4314,4.4323,4.4246,4.4227,4.431,4.431,4.431,4.431,4.431,4.431,4.3476,4.356,4.3588,4.3696,4.3739,4.3818,4.3854,4.3905,4.3951,4.4048,4.4108,4.4143,4.42,4.4278,4.4344,4.4358,4.4384,4.4395,4.441,4.4337,4.4328,4.432,4.4302,4.4401,4.4401,4.4482,4.4483,4.4483]}]]